sat.trackr.live / text

‹ back to catalog

BRO-22

NORAD 69504 · 2026-132C

PAYLOAD ACTIVE UNKNOWN

§ Identity

Operator
Country
FR
Launch date
2026-06-12
Launch site
TANSC
Launch vehicle
Mass (kg)
RCS (m²)

External: N2YO · Heavens-Above · Gunter

§ Orbital elements

Epoch: 2026-09-20T03:41:50.364960Z

Period
96.00 min
Inclination
97.6777°
Eccentricity
0.0017357
Mean motion
14.99939778 rev/d
Perigee alt
555.0 km
Apogee alt
579.1 km
Semi-major
6,945.2 km
B*
-1.5509e-5
RAAN
325.6138°
Arg perigee
310.6334°
Mean anomaly
49.3379°
Rev number
1,501

§ Raw data

BRO-221 69504U 26132C   26263.15405515 -.00000253  00000+0 -15509-4 0  99982 69504  97.6777 325.6138 0017357 310.6334  49.3379 14.99939778 15018

JSON: /api/v1/satellites/69504 · /tle

For live sub-satellite position, see the globe view (requires WebGL).

§ Visibility from observer

Set your observer location to see the next 7 days of passes ≥ 10°. The values pass through the URL so the page stays shareable.

No JS? Fill the form by hand. The geolocation button needs JavaScript.